Погода в Молочном

Россия / Вологодская область     59°17′15″N   39°40′56″E
темп.,
°C
ветер,
м/с
пор.,
м/с
влажн.,
%
обл.,
%
осадки,
мм/ч
давл.,
гПа
погр.,
м
30 июня, чт
чт3000:00+10ссз33669 0.0 102040
03:00+9сз34680 0.0 102051
06:00+12сз397513 0.0 1018227
09:00+15ссз496924 0.0 1018454
12:00+20с694748 0.0 10171662
15:00+22ссв694844 0.0 10172132
18:00+20ссв485539 0.0 1017663
21:00+14ссв356641 0.0 101870
1 июля, пт
пт100:00+10всв22730 0.0 102022
03:00+8св22755 0.0 102210
06:00+11св23715 0.0 1023118
09:00+16св23543 0.0 1023548
12:00+19ссв24430 0.0 10231420
15:00+21ссз244018 0.0 10221587
18:00+21зсз23545 0.0 1021520
21:00+16з3466100 0.0 102142
2 июля, сб
сб200:00+14зсз357282 0.0 102172
03:00+12зсз347442 0.0 102159
06:00+15зсз376965 0.0 1020166
09:00+20зсз475750 0.0 1019409
12:00+25ссз46571 0.0 10171129
15:00+27ссз56520 0.0 10162237
18:00+25ссв47605 0.0 1016532
21:00+19ссв347112 0.0 101651
3 июля, вс
вс300:00+15св2283100 0.0 101720
03:00+13ссв22870 0.0 101718
06:00+15ссв23790 0.0 1018118
09:00+20св33680 0.0 1018542
12:00+23св23560 0.0 10171269
15:00+25с12500 0.0 10171492
18:00+25зсз12550 0.0 10161079
21:00+19юз11717 0.0 101611
4 июля, пн
пн400:00+16ююз2277100 0.0 101712
03:00+16юз2280100 0.0 101716
06:00+18юз227870 0.0 101788
09:00+23юз1260100 0.0 1017469
12:00+26ююз224898 0.0 10171349
15:00+27ююз1244100 0.0 10161885
18:00+26ююз2360100 0.0 1015262
21:00+20юз3372100 0.0 101529